Location: Betra
(48.4113°N, 8.6634°E)
Time: 21:07:36
(UTC+00:00)

Meteor 1-28 Rocket - Pass Details

Date: 23 May 2024
Orbit: 474 x 489 km, 97.5° (Epoch: 16 June)

Event Time Altitude Azimuth Distance (km) Brightness Sun altitude
Exits shadow 02:00:06 10° 169° (S) 1,673 5.4 -12.4°
Reaches altitude 10° 02:00:08 10° 169° (S) 1,657 5.4 -12.4°
Maximum altitude 02:03:42 80° 257° (WSW) 494 3.0 -12.1°
Drops below altitude 10° 02:07:16 10° 345° (NNW) 1,663 6.3 -11.7°
Sets 02:09:20 0° 346° (NNW) 2,545 7.3 -11.5°
